Weather History for Monroe, LA

Change the Weather History Date:

Thursday, October 18, 2012

  Actual Average Record
Temperature  
Mean Temperature 64 °F 65 °F  
Max Temperature 77 °F 79 °F 91 °F (1953)
Min Temperature 51 °F 52 °F 32 °F (1948)
Degree Days  
Heating Degree Days 1 3  
Month to date heating degree days 35 31  
Since 1 July heating degree days 36 37  
Cooling Degree Days 0 3  
Month to date cooling degree days 59 88  
Year to date cooling degree days 2728 2452  
Growing Degree Days 16 (Base 50)    
Moisture  
Dew Point 50 °F    
Average Humidity 61    
Maximum Humidity 100    
Minimum Humidity 22    
Precipitation  
Precipitation 0.00 in 0.17 in 3.10 in (1937)
Month to date precipitation 1.46 2.69  
Year to date precipitation 50.11 41.80  
Snow  
Snow 0.00 in - - ()
Month to date snowfall 0.0  
Since 1 July snowfall 0.0  
Since 1 September snowfall 0.0  
Snow Depth 0.00 in    
Sea Level Pressure  
Sea Level Pressure 29.88 in    
Wind  
Wind Speed 4 mph (NNW)    
Max Wind Speed 15 mph    
Max Gust Speed 20 mph    
Visibility 10 miles    
Events      
T = Trace of Precipitation, MM = Missing Value Source: NWS Daily Summary

Daily Weather History Graph

Daily Weather History Graph

Search for Another Location

Airport:

Trip Planner

Search our weather history database for the weather conditions in past years. The results will help you decide how hot, cold, wet, or windy it might be!

Date:

Astronomy

Oct. 18, 2012 Rise Set
Actual Time 7:14 AM CDT 6:31 PM CDT
Civil Twilight 6:49 AM CDT 6:56 PM CDT
Nautical Twilight 6:21 AM CDT 7:24 PM CDT
Astronomical Twilight 5:52 AM CDT 7:53 PM CDT
Moon 10:45 AM CDT 9:17 PM CDT
Length of Visible Light 12h 06m
Length of Day
11h 16m
Waxing Crescent, 14% of the Moon is Illuminated
Oct 18
Waxing Crescent
Oct 21
First Quarter
Oct 29
Full
Nov 6
Last Quarter
Nov 13
New

Hourly Weather History & Observations

Time (CDT) Temp. Dew Point Humidity Pressure Visibility Wind Dir Wind Speed Gust Speed Precip Events Conditions
12:53 AM 68.0 °F 64.9 °F 90% 29.73 in 10.0 mi SW 3.5 mph - N/A   Mostly Cloudy
1:17 AM 66.2 °F 64.4 °F 94% 29.74 in 10.0 mi North 5.8 mph - N/A   Scattered Clouds
1:53 AM 69.1 °F 64.0 °F 84% 29.75 in 10.0 mi North 8.1 mph - N/A   Clear
2:53 AM 64.9 °F 62.1 °F 90% 29.79 in 10.0 mi North 5.8 mph - N/A   Partly Cloudy
3:53 AM 64.0 °F 61.0 °F 90% 29.82 in 9.0 mi NNE 6.9 mph - N/A   Clear
4:53 AM 60.8 °F 57.2 °F 88% 29.86 in 10.0 mi NNE 4.6 mph - N/A   Clear
5:53 AM 60.1 °F 55.9 °F 86% 29.87 in 10.0 mi NE 4.6 mph - N/A   Clear
6:53 AM 57.9 °F 55.0 °F 90% 29.87 in 10.0 mi Calm Calm - N/A   Clear
7:53 AM 55.9 °F 55.0 °F 97% 29.89 in 8.0 mi Calm Calm - N/A   Clear
8:53 AM 63.0 °F 57.0 °F 81% 29.92 in 10.0 mi Calm Calm - N/A   Clear
9:53 AM 68.0 °F 54.0 °F 61% 29.92 in 10.0 mi Calm Calm - N/A   Clear
10:53 AM 70.0 °F 48.9 °F 47% 29.92 in 10.0 mi Calm Calm - N/A   Clear
11:53 AM 73.0 °F 45.0 °F 37% 29.94 in 10.0 mi WNW 6.9 mph - N/A   Clear
12:53 PM 75.9 °F 36.0 °F 23% 29.92 in 10.0 mi NNW 11.5 mph - N/A   Clear
1:53 PM 75.9 °F 37.9 °F 25% 29.90 in 10.0 mi NNW 5.8 mph - N/A   Clear
2:53 PM 75.9 °F 41.0 °F 29% 29.89 in 10.0 mi NW 10.4 mph - N/A   Clear
3:53 PM 77.0 °F 35.1 °F 22% 29.89 in 10.0 mi NNW 10.4 mph - N/A   Clear
4:53 PM 75.0 °F 37.0 °F 25% 29.88 in 10.0 mi NNW 6.9 mph - N/A   Clear
5:05 PM 75.2 °F 35.6 °F 24% 29.88 in 10.0 mi NNW 5.8 mph - N/A   Partly Cloudy
5:53 PM 72.0 °F 41.0 °F 33% 29.89 in 10.0 mi NW 4.6 mph - N/A   Clear
6:53 PM 61.0 °F 51.1 °F 70% 29.90 in 10.0 mi Calm Calm - N/A   Clear
7:53 PM 57.9 °F 51.1 °F 78% 29.92 in 10.0 mi Calm Calm - N/A   Clear
8:53 PM 55.9 °F 48.9 °F 77% 29.92 in 10.0 mi Calm Calm - N/A   Clear
9:53 PM 57.0 °F 46.9 °F 69% 29.93 in 10.0 mi Calm Calm - N/A   Clear
10:53 PM 55.0 °F 46.9 °F 74% 29.94 in 10.0 mi South 3.5 mph - N/A   Clear
11:53 PM 54.0 °F 46.9 °F 77% 29.95 in 10.0 mi SSW 3.5 mph - N/A   Clear